TimeCDT,TemperatureF,Dew PointF,Humidity,Sea Level PressureIn,VisibilityMPH,Wind Direction,Wind SpeedMPH,Gust SpeedMPH,PrecipitationIn,Events,Conditions,WindDirDegrees,DateUTC
12:15 AM,66.2,55.4,68,29.98,10.0,West,9.2,-,N/A,,Clear,270,2013-06-17 05:15:00
12:35 AM,66.2,53.6,64,29.98,10.0,West,9.2,-,N/A,,Clear,280,2013-06-17 05:35:00
12:55 AM,66.2,55.4,68,29.98,10.0,WNW,9.2,-,N/A,,Unknown,290,2013-06-17 05:55:00
1:15 AM,66.2,53.6,64,29.98,10.0,WNW,8.1,13.8,N/A,,Unknown,300,2013-06-17 06:15:00
1:35 AM,64.4,55.4,73,29.98,10.0,NW,5.8,-,N/A,,Unknown,310,2013-06-17 06:35:00
1:55 AM,62.6,55.4,77,29.97,10.0,NW,6.9,-,N/A,,Unknown,320,2013-06-17 06:55:00
2:15 AM,62.6,55.4,77,29.98,10.0,NW,8.1,-,N/A,,Clear,310,2013-06-17 07:15:00
2:35 AM,62.6,55.4,77,29.97,10.0,NW,8.1,-,N/A,,Clear,310,2013-06-17 07:35:00
2:55 AM,62.6,55.4,77,29.97,10.0,NW,6.9,-,N/A,,Unknown,320,2013-06-17 07:55:00
3:15 AM,60.8,55.4,82,29.96,10.0,North,5.8,-,N/A,,Unknown,360,2013-06-17 08:15:00
3:35 AM,60.8,55.4,82,29.96,10.0,NNW,4.6,-,N/A,,Unknown,330,2013-06-17 08:35:00
3:55 AM,60.8,55.4,82,29.96,10.0,NNW,5.8,-,N/A,,Clear,330,2013-06-17 08:55:00
4:15 AM,59.0,57.2,94,29.95,10.0,NNW,4.6,-,N/A,,Unknown,340,2013-06-17 09:15:00
4:35 AM,59.0,57.2,94,29.95,10.0,Calm,Calm,-,N/A,,Clear,0,2013-06-17 09:35:00
4:55 AM,59.0,57.2,94,29.95,10.0,Calm,Calm,-,N/A,,Unknown,0,2013-06-17 09:55:00
5:15 AM,59.0,57.2,94,29.95,10.0,NNW,3.5,-,N/A,,Clear,330,2013-06-17 10:15:00
5:35 AM,59.0,57.2,94,29.96,10.0,NNW,3.5,-,N/A,,Clear,340,2013-06-17 10:35:00
5:55 AM,59.0,57.2,94,29.97,10.0,West,5.8,-,N/A,,Clear,280,2013-06-17 10:55:00
6:15 AM,60.8,57.2,88,29.98,-9999.0,WNW,4.6,-,N/A,,Unknown,290,2013-06-17 11:15:00
6:35 AM,62.6,57.2,82,29.99,10.0,West,6.9,-,N/A,,Clear,280,2013-06-17 11:35:00
6:55 AM,64.4,57.2,77,30.00,10.0,West,8.1,-,N/A,,Clear,280,2013-06-17 11:55:00
7:15 AM,64.4,57.2,77,30.00,10.0,WNW,8.1,-,N/A,,Clear,290,2013-06-17 12:15:00
7:35 AM,66.2,57.2,73,30.00,10.0,NW,8.1,-,N/A,,Clear,310,2013-06-17 12:35:00
7:55 AM,68.0,59.0,73,29.99,10.0,NW,9.2,-,N/A,,Clear,310,2013-06-17 12:55:00
8:15 AM,68.0,59.0,73,30.00,10.0,NNW,8.1,-,N/A,,Clear,340,2013-06-17 13:15:00
8:35 AM,69.8,59.0,68,30.00,10.0,North,5.8,-,N/A,,Clear,350,2013-06-17 13:35:00
8:55 AM,71.6,59.0,64,30.01,10.0,NNW,5.8,-,N/A,,Clear,340,2013-06-17 13:55:00
9:15 AM,73.4,57.2,57,30.01,10.0,North,6.9,-,N/A,,Clear,10,2013-06-17 14:15:00
9:35 AM,75.2,57.2,53,30.02,10.0,North,6.9,-,N/A,,Clear,10,2013-06-17 14:35:00
9:55 AM,75.2,53.6,47,30.02,10.0,North,8.1,-,N/A,,Clear,360,2013-06-17 14:55:00
10:15 AM,77.0,53.6,44,30.02,10.0,Variable,5.8,-,N/A,,Clear,0,2013-06-17 15:15:00
10:35 AM,78.8,51.8,39,30.02,10.0,North,6.9,-,N/A,,Clear,10,2013-06-17 15:35:00
10:55 AM,78.8,50.0,36,30.02,10.0,NW,10.4,-,N/A,,Clear,320,2013-06-17 15:55:00
11:15 AM,78.8,50.0,36,30.02,10.0,Calm,Calm,-,N/A,,Clear,0,2013-06-17 16:15:00
11:35 AM,80.6,50.0,34,30.02,10.0,NW,8.1,-,N/A,,Clear,310,2013-06-17 16:35:00
11:55 AM,80.6,50.0,34,30.02,10.0,WNW,8.1,15.0,N/A,,Clear,300,2013-06-17 16:55:00
12:15 PM,82.4,50.0,32,30.02,10.0,West,10.4,17.3,N/A,,Clear,280,2013-06-17 17:15:00
12:35 PM,82.4,50.0,32,30.02,10.0,WNW,13.8,21.9,N/A,,Clear,290,2013-06-17 17:35:00
12:55 PM,80.6,50.0,34,30.02,10.0,NW,9.2,20.7,N/A,,Clear,310,2013-06-17 17:55:00
1:15 PM,82.4,48.2,30,30.02,10.0,NW,15.0,23.0,N/A,,Clear,310,2013-06-17 18:15:00
1:35 PM,82.4,48.2,30,30.01,10.0,WNW,13.8,31.1,N/A,,Clear,290,2013-06-17 18:35:00
1:55 PM,82.4,50.0,32,30.01,10.0,WNW,19.6,-,N/A,,Clear,300,2013-06-17 18:55:00
2:15 PM,84.2,46.4,27,30.00,10.0,NW,18.4,25.3,N/A,,Clear,310,2013-06-17 19:15:00
2:35 PM,84.2,46.4,27,30.00,10.0,WNW,17.3,27.6,N/A,,Clear,300,2013-06-17 19:35:00
2:55 PM,84.2,44.6,25,29.99,10.0,WNW,19.6,28.8,N/A,,Clear,290,2013-06-17 19:55:00
3:15 PM,84.2,48.2,29,29.99,10.0,WNW,10.4,24.2,N/A,,Clear,290,2013-06-17 20:15:00
3:35 PM,86.0,46.4,25,29.99,10.0,WNW,21.9,28.8,N/A,,Clear,290,2013-06-17 20:35:00
3:55 PM,84.2,46.4,27,29.99,10.0,NW,21.9,29.9,N/A,,Clear,310,2013-06-17 20:55:00
4:15 PM,82.4,46.4,28,29.99,10.0,West,20.7,26.5,N/A,,Clear,280,2013-06-17 21:15:00
4:35 PM,80.6,48.2,32,29.99,10.0,WNW,19.6,27.6,N/A,,Clear,290,2013-06-17 21:35:00
4:55 PM,80.6,48.2,32,29.99,10.0,WNW,18.4,24.2,N/A,,Clear,300,2013-06-17 21:55:00
5:15 PM,82.4,48.2,30,29.98,10.0,NW,17.3,23.0,N/A,,Clear,310,2013-06-17 22:15:00
5:35 PM,80.6,48.2,32,29.98,10.0,WNW,16.1,21.9,N/A,,Clear,300,2013-06-17 22:35:00
5:55 PM,80.6,48.2,32,29.98,10.0,NW,16.1,-,N/A,,Clear,320,2013-06-17 22:55:00
6:15 PM,78.8,50.0,36,29.98,10.0,NW,15.0,-,N/A,,Clear,310,2013-06-17 23:15:00
6:35 PM,80.6,48.2,32,29.97,10.0,NNW,16.1,23.0,N/A,,Clear,330,2013-06-17 23:35:00
6:55 PM,80.6,50.0,34,29.97,10.0,NNW,13.8,19.6,N/A,,Clear,340,2013-06-17 23:55:00
7:15 PM,78.8,50.0,36,29.97,10.0,NNW,13.8,23.0,N/A,,Clear,330,2013-06-18 00:15:00
7:35 PM,78.8,50.0,36,29.97,10.0,NNW,18.4,-,N/A,,Clear,330,2013-06-18 00:35:00
7:55 PM,78.8,50.0,36,29.97,10.0,NNW,15.0,20.7,N/A,,Clear,330,2013-06-18 00:55:00
8:15 PM,77.0,51.8,41,29.98,10.0,NNW,12.7,-,N/A,,Clear,330,2013-06-18 01:15:00
8:35 PM,77.0,51.8,41,29.98,10.0,NW,10.4,-,N/A,,Clear,320,2013-06-18 01:35:00
8:55 PM,75.2,51.8,44,29.98,10.0,NW,10.4,-,N/A,,Clear,320,2013-06-18 01:55:00
9:15 PM,73.4,51.8,47,29.99,10.0,NW,9.2,-,N/A,,Clear,320,2013-06-18 02:15:00
9:35 PM,71.6,51.8,50,29.99,10.0,NW,5.8,-,N/A,,Clear,320,2013-06-18 02:35:00
9:55 PM,69.8,51.8,53,30.00,10.0,NW,4.6,-,N/A,,Unknown,320,2013-06-18 02:55:00
10:15 PM,69.8,51.8,53,30.01,10.0,NNW,6.9,-,N/A,,Unknown,330,2013-06-18 03:15:00
10:35 PM,68.0,53.6,60,30.01,10.0,North,6.9,-,N/A,,Unknown,350,2013-06-18 03:35:00
10:55 PM,68.0,53.6,60,30.02,10.0,NNW,6.9,-,N/A,,Unknown,330,2013-06-18 03:55:00
11:15 PM,66.2,53.6,64,30.02,10.0,NNW,4.6,-,N/A,,Unknown,330,2013-06-18 04:15:00
11:35 PM,66.2,53.6,64,30.02,10.0,NNW,5.8,-,N/A,,Unknown,340,2013-06-18 04:35:00
11:55 PM,64.4,53.6,68,30.02,10.0,NNW,3.5,-,N/A,,Clear,330,2013-06-18 04:55:00